Regional Weather Roundup
Issued by NWS

Home | Current Version | Previous Version | Text Only | Print | Product List | Glossary On
Versions: 1 2 3 4 5 6 7 8 9 10 11 12 13 14 15 16 17 18 19 20 21 22 23 24 25 26 27 28 29 30 31 32 33 34 35 36 37 38 39 40 41 42 43 44 45 46 47 48 49 50
000
ASUS43 KDTX 291801
RWRMI
MICHIGAN HOURLY REGIONAL WEATHER ROUNDUP
NATIONAL WEATHER SERVICE DETROIT/PONTIAC MI
200 PM EDT MON MAY 29 2017

NOTE: "FAIR" INDICATES FEW OR NO CLOUDS BELOW 12,000 FEET WITH NO
SIGNIFICANT WEATHER AND/OR OBSTRUCTION TO VISIBILITY.

MIZ047>049-052>055-059>063-066>070-074>076-081>083-291900-
SOUTHEAST LOWER MICHIGAN

CITY           SKY/WX    TMP DP  RH WIND       PRES   REMARKS
ADRIAN         MOSUNNY   77  48  35 W15G24    29.84R
6HR MIN TEMP:  59; 6HR MAX TEMP:  77;

ALMA           SUNNY     74  39  28 SW21G31   29.77R
ANN ARBOR      MOSUNNY   75  51  43 SW16G25   29.81R
BAD AXE        CLOUDY    75  46  35 SW13G21   29.73F
6HR MIN TEMP:  60; 6HR MAX TEMP:  75;

CARO           PTSUNNY   78  48  35 SW18G25   29.74S
DETROIT CITY   PTSUNNY   76  57  51 S17       29.79S
6HR MIN TEMP:  60; 6HR MAX TEMP:  77;

DETROIT        PTSUNNY   77  53  43 SW17G25   29.81S
6HR MIN TEMP:  61; 6HR MAX TEMP:  79;

FLINT          MOSUNNY   78  44  29 W18G35    29.77R
6HR MIN TEMP:  59; 6HR MAX TEMP:  79;

GROSSE ILE     MOSUNNY   74  59  61 S12       29.81R
6HR MIN TEMP:  61; 6HR MAX TEMP:  74;

HILLSDALE      MOSUNNY   73  46  38 SW10G21   29.84R
HOWELL         MOSUNNY   76  42  29 W22G28    29.80R
6HR MIN TEMP:  59; 6HR MAX TEMP:  76;


CITY           SKY/WX    TMP DP  RH WIND       PRES   REMARKS
JACKSON        MOSUNNY   77  45  32 W14G24    29.81R
6HR MIN TEMP:  61; 6HR MAX TEMP:  77;

LAMBERTVILLE   SUNNY     77  53  43 W12G20    29.83R
6HR MIN TEMP:  62; 6HR MAX TEMP:  77;

LANSING        MOSUNNY   78  41  26 W17G30    29.79S
6HR MIN TEMP:  62; 6HR MAX TEMP:  78;

LAPEER         PTSUNNY   75  45  34 SW13G23   29.78R
6HR MIN TEMP:  61; 6HR MAX TEMP:  78;

MASON          MOSUNNY   76  45  32 W14G26    29.80R
MONROE         MOSUNNY   79  53  41 W13G24    29.81S
6HR MIN TEMP:  61; 6HR MAX TEMP:  79;

MT. CLEMENS    MOSUNNY   76  56  49 S16       29.78S
6HR MIN TEMP:  62; 6HR MAX TEMP:  78;

PONTIAC        PTSUNNY   78  47  33 W16G29    29.78S
6HR MIN TEMP:  59; 6HR MAX TEMP:  78;

PORT HOPE        N/A     76  51  41 VRB6      29.70F
6HR MIN TEMP:  62; 6HR MAX TEMP:  77;

PORT HURON     SUNNY     75  48  38 S12G18    29.79R
TRI CITIES     MOSUNNY   77  43  29 W26G36    29.74R
6HR MIN TEMP:  59; 6HR MAX TEMP:  77;

MIDLAND        FAIR      77  38  24 W16G31    29.73R
6HR MIN TEMP:  59; 6HR MAX TEMP:  78;

TROY           PTSUNNY   78  49  36 SW9G20    29.81R
SAGINAW HB     MOSUNNY   79  36  21 SW16G25   29.74R
$$
MIZ043>046-050>051-056>058-064>065-071>073-077>080-291900-
SOUTHWEST LOWER MICHIGAN

CITY           SKY/WX    TMP DP  RH WIND       PRES   REMARKS
BATTLE CREEK   LGT RAIN  74  43  32 W18G26    29.83R
6HR MIN TEMP:  60; 6HR MAX TEMP:  78; 6HR PCP: TRACE;

BENTON HARBOR  MOSUNNY   73  45  36 SW16G22   29.83S
6HR MIN TEMP:  63; 6HR MAX TEMP:  75;

BIG RAPIDS     SUNNY     71  37  29 W23G32    29.74S
6HR MIN TEMP:  55; 6HR MAX TEMP:  72;

COLDWATER      MOSUNNY   76  44  32 W16G22    29.84R
6HR MIN TEMP:  60; 6HR MAX TEMP:  77;

FREMONT        FAIR      71  39  31 W21G26    29.77S
HOLLAND        PTSUNNY   69  47  45 W18G25    29.82R
6HR MIN TEMP:  61; 6HR MAX TEMP:  71;

GRAND RAPIDS   CLOUDY    74  47  38 W22G30    29.80R
6HR MIN TEMP:  60; 6HR MAX TEMP:  74;

IONIA          FAIR      75  43  31 W16G26    29.79R
6HR MIN TEMP:  61; 6HR MAX TEMP:  76;

KALAMAZOO      PTSUNNY   74  43  32 W12       29.83R
6HR MIN TEMP:  61; 6HR MAX TEMP:  77;

LUDINGTON      PTSUNNY   63  51  64 SW14      29.76R
6HR MIN TEMP:  55; 6HR MAX TEMP:  66;

MARSHALL       MOSUNNY   77  43  29 W16G25    29.82R
6HR MIN TEMP:  61; 6HR MAX TEMP:  78;

MOUNT PLEASANT SUNNY     74  40  28 W18G30    29.73S
6HR MIN TEMP:  59; 6HR MAX TEMP:  75;

MUSKEGON       MOSUNNY   69  48  47 SW13G18   29.80R
6HR MIN TEMP:  63; 6HR MAX TEMP:  70;

SOUTH HAVEN    PTSUNNY   70  46  42 SW10      29.82S
$$
MIZ016>042-291900-
NORTHERN LOWER MICHIGAN

CITY           SKY/WX    TMP DP  RH WIND       PRES   REMARKS
ALPENA         PTSUNNY   69  48  47 NW10      29.68S
6HR MIN TEMP:  57; 6HR MAX TEMP:  73; 6HR PCP:  0.01;

BEAVER ISLAND  SUNNY     63  48  57 SW15G24   29.68R
6HR MIN TEMP:  50; 6HR MAX TEMP:  64;

BELLAIRE       SUNNY     69  45  43 SW10G20   29.69S
6HR MIN TEMP:  55; 6HR MAX TEMP:  69;

CADILLAC       MOSUNNY   69  42  38 W20G29    29.72R
CHARLEVOIX     PTSUNNY   67  51  57 W12       29.71F
6HR MIN TEMP:  55; 6HR MAX TEMP:  67;

FRANKFORT      SUNNY     64  48  57 SW7       29.72S
GAYLORD        PTSUNNY   68  44  42 W8G20     29.69F
6HR MIN TEMP:  55; 6HR MAX TEMP:  69; 6HR PCP: TRACE;

GRAYLING       MOSUNNY   71  44  37 SW10G28   29.70S
HARBOR SPRINGS MOSUNNY   65  49  56 W6        29.68F
HOUGHTON LAKE  MOSUNNY   71  40  32 W17G31    29.71R
6HR MIN TEMP:  56; 6HR MAX TEMP:  72;

MANISTEE       PTSUNNY   64  48  56 SW14G25   29.74R
OSCODA         CLOUDY    72  48  42 SW9G24    29.67F
6HR MIN TEMP:  59; 6HR MAX TEMP:  74;

PELLSTON       PTSUNNY   67  48  50 SW10G23   29.68F
6HR MIN TEMP:  52; 6HR MAX TEMP:  67; 6HR PCP:  0.04;

ROGERS CITY    MOSUNNY   60  53  78 NE8       29.68F
TRAVERSE CITY  PTSUNNY   68  43  40 W9G20     29.68S
6HR MIN TEMP:  57; 6HR MAX TEMP:  70; 6HR PCP: TRACE;

$$
MIZ007>008-015-291900-
EASTERN UPPER MICHIGAN

CITY           SKY/WX    TMP DP  RH WIND       PRES   REMARKS
KINROSS        SUNNY     64  50  60 S10G22    29.66S
6HR MIN TEMP:  52; 6HR MAX TEMP:  65;

MACKINAC ISLAN PTSUNNY   60  51  73 SW7       29.68S
6HR MIN TEMP:  51; 6HR MAX TEMP:  60;

NEWBERRY       PTSUNNY   61  53  72 S14       29.63S
6HR MIN TEMP:  48; 6HR MAX TEMP:  62;

S. S. MARIE    PTSUNNY   65  51  60 S13G22    29.64S
6HR MIN TEMP:  55; 6HR MAX TEMP:  65;

MUNISING         N/A     56  49  77 NE9       29.60R
6HR MIN TEMP:  53; 6HR MAX TEMP:  65;

$$
MIZ004>006-011>014-085-291900-
CENTRAL UPPER MICHIGAN

CITY           SKY/WX    TMP DP  RH WIND       PRES   REMARKS
MANISTIQUE     CLOUDY    54  50  85 S13       29.63R
6HR MIN TEMP:  48; 6HR MAX TEMP:  58;

ESCANABA       PTSUNNY   67  50  54 W12G20    29.62F
6HR MIN TEMP:  53; 6HR MAX TEMP:  67; 6HR PCP:  0.01;

SAWYER-GWINN   LGT RAIN  57  52  82 W9        29.62S
$$
MIZ001>003-009>011-084-291900-
WESTERN UPPER MICHIGAN

CITY           SKY/WX    TMP DP  RH WIND       PRES   REMARKS
IRON MOUNTAIN  PTSUNNY   65  46  50 W18G24    29.64R
6HR MIN TEMP:  50; 6HR MAX TEMP:  66; 6HR PCP: TRACE;

HOUGHTON       LGT RAIN  50  47  89 W18       29.60R
6HR MIN TEMP:  48; 6HR MAX TEMP:  50; 6HR PCP:  0.20;

COPPER HARBOR    N/A     49  47  93 N3        29.58R
6HR MIN TEMP:  43; 6HR MAX TEMP:  50; 6HR PCP:  0.02;

IRONWOOD       LGT RAIN  56  52  86 W15       29.67S
6HR MIN TEMP:  52; 6HR MAX TEMP:  57;

$$

ABBREVIATIONS USED IN REMARKS
   TC - TEMPERATURE IN CELSIUS
  WCI - WIND CHILL INDEX
   HX - HEAT INDEX
  VSB - VISIBILITY




USA.gov is the U.S. government's official web portal to all federal, state and local government web resources and services.